This is the latest recevied weather packets stored in our database for station/object N7BTW-13. If no packets are shown the sender has not sent any weather packets the latest 10 day(s).
| Time | Temp. | Humidity | Pressure | Rain* | Wind** | Luminosity | Snow |
|---|---|---|---|---|---|---|---|
| 1777558812 | 7.22° C | 99% | 1019.9 hPa | 0 mm | - | - | - |
| 1777558206 | 6.67° C | 99% | 1019.9 hPa | 0 mm | - | - | - |
| 1777557608 | 6.11° C | 99% | 1019.8 hPa | 0 mm | - | - | - |
| 1777557006 | 5.56° C | 99% | 1019.9 hPa | 0 mm | - | - | - |
| 1777556407 | 5.56° C | 99% | 1019.9 hPa | 0 mm | - | - | - |
| 1777555808 | 5.56° C | 99% | 1019.8 hPa | 0 mm | - | - | - |
| 1777555209 | 5.56° C | 99% | 1019.9 hPa | 0 mm | - | - | - |
| 1777554609 | 5.56° C | 99% | 1019.8 hPa | 0 mm | - | - | - |
| 1777554014 | 5.56° C | 99% | 1019.8 hPa | 0 mm | - | - | - |
| 1777553407 | 5.56° C | 99% | 1019.8 hPa | 0 mm | - | - | - |
| 1777552808 | 5.56° C | 99% | 1019.7 hPa | 0 mm | - | - | - |
| 1777552206 | 5.56° C | 99% | 1019.8 hPa | 0 mm | - | - | - |
| 1777551606 | 5.56° C | 99% | 1019.9 hPa | 0 mm | - | - | - |
| 1777551015 | 5.56° C | 99% | 1019.9 hPa | 0 mm | - | - | - |
| 1777550409 | 5.56° C | 99% | 1019.9 hPa | 0 mm | - | - | - |
| 1777549807 | 6.11° C | 99% | 1019.9 hPa | 0 mm | - | - | - |
| 1777549209 | 6.11° C | 99% | 1020 hPa | 0 mm | - | - | - |
| 1777548607 | 6.11° C | 99% | 1020.1 hPa | 0 mm | - | - | - |
| 1777548011 | 6.11° C | 99% | 1020.2 hPa | 0 mm | - | - | - |
| 1777547408 | 6.11° C | 98% | 1020.3 hPa | 0 mm | - | - | - |
| 1777546809 | 6.11° C | 98% | 1020.3 hPa | 0 mm | - | - | - |
| 1777546207 | 6.11° C | 98% | 1020.3 hPa | 0 mm | - | - | - |
| 1777545607 | 6.11° C | 97% | 1020.3 hPa | 0 mm | - | - | - |
| 1777545007 | 6.67° C | 97% | 1020.1 hPa | 0 mm | - | - | - |
| 1777544408 | 6.67° C | 97% | 1020.1 hPa | 0 mm | - | - | - |
* Rain latest hour (hover to see other rain measurements)
** Current wind speed in m/s (hover to see current wind gust speed)